Fort Worth, TX

5:00 PM CST on February 13, 2016 (GMT -0600)
Fort Worth Alliance

Weather History for KAFW - November, 2011

Change the Weather History Date:

Friday, November 4, 2011

  Actual Average Record
Temperature  
Mean Temperature 45 °F -  
Max Temperature 63 °F 66 °F 84 °F (2007)
Min Temperature 28 °F 47 °F 28 °F (2011)
Degree Days  
Heating Degree Days 20    
Moisture  
Dew Point 26 °F    
Average Humidity 53    
Maximum Humidity 86    
Minimum Humidity 22    
Precipitation  
Precipitation 0.00 in - - ()
Sea Level Pressure  
Sea Level Pressure 30.20 in    
Wind  
Wind Speed 1 mph (SSE)    
Max Wind Speed 7 mph    
Max Gust Speed -    
Visibility 10 miles    
Events      
Averages and records for this station are not official NWS values.
T = Trace of Precipitation, MM = Missing Value Source: NWS Daily Summary

Daily Weather History Graph

Daily Weather History Graph

Search for Another Location

Airport or City:

Trip Planner

Search our weather history database for the weather conditions in past years. The results will help you decide how hot, cold, wet, or windy it might be!

Date:

Astronomy

Nov. 04, 2011 Rise Set
Actual Time 7:49 AM CDT 6:35 PM CDT
Civil Twilight 7:24 AM CDT 7:01 PM CDT
Nautical Twilight 6:54 AM CDT 7:30 PM CDT
Astronomical Twilight 6:25 AM CDT 7:59 PM CDT
Moon 3:12 PM CDT (11/4) 2:20 AM CDT (11/4)
Length of Visible Light 11h 37m
Length of Day
10h 45m
Waxing Gibbous, 69% of the Moon is Illuminated
Nov 4
Waxing Gibbous
Nov 10
Full
Nov 18
Last Quarter
Nov 25
New
Dec 2
First Quarter

Hourly Weather History & Observations

Time (CDT) Temp. Windchill Dew Point Humidity Pressure Visibility Wind Dir Wind Speed Gust Speed Precip Events Conditions
1:53 AM 30.9 °F - 24.1 °F 76% 30.29 in 10.0 mi Calm Calm - N/A   Clear
2:53 AM 30.0 °F - 24.1 °F 79% 30.28 in 10.0 mi Calm Calm - N/A   Clear
3:53 AM 30.9 °F - 24.1 °F 76% 30.27 in 10.0 mi Calm Calm - N/A   Clear
4:53 AM 28.9 °F - 24.1 °F 82% 30.26 in 10.0 mi Calm Calm - N/A   Clear
5:53 AM 28.0 °F - 23.0 °F 81% 30.26 in 10.0 mi Calm Calm - N/A   Clear
6:53 AM 28.9 °F 25.2 °F 23.0 °F 78% 30.27 in 10.0 mi West 3.5 mph - N/A   Clear
7:53 AM 28.4 °F - 24.8 °F 86% 30.25 in 10.0 mi Calm Calm - N/A   Clear
8:53 AM 35.1 °F - 30.0 °F 82% 30.29 in 10.0 mi Calm Calm - N/A   Clear
9:53 AM 45.0 °F - 28.0 °F 52% 30.29 in 10.0 mi Calm Calm - N/A   Clear
10:53 AM 50.0 °F - 28.9 °F 44% 30.28 in 10.0 mi Calm Calm - N/A   Clear
11:53 AM 55.0 °F - 27.0 °F 34% 30.27 in 10.0 mi ESE 4.6 mph - N/A   Clear
12:53 PM 57.0 °F - 26.1 °F 30% 30.24 in 10.0 mi SW 5.8 mph - N/A   Clear
1:53 PM 59.0 °F - 25.0 °F 27% 30.19 in 10.0 mi Calm Calm - N/A   Clear
3:53 PM 62.6 °F - 24.8 °F 24% 30.11 in 10.0 mi ESE 4.6 mph - N/A   Clear
4:53 PM 62.1 °F - 23.0 °F 22% 30.12 in 10.0 mi SSE 4.6 mph - N/A   Clear
5:53 PM 60.1 °F - 21.9 °F 23% 30.11 in 10.0 mi SE 6.9 mph - N/A   Clear
6:53 PM 55.0 °F - 25.0 °F 31% 30.11 in 10.0 mi SE 3.5 mph - N/A   Clear
7:53 PM 52.0 °F - 27.0 °F 38% 30.11 in 10.0 mi Calm Calm - N/A   Clear
8:53 PM 48.0 °F - 30.9 °F 52% 30.11 in 10.0 mi Calm Calm - N/A   Clear
9:53 PM 48.9 °F - 30.0 °F 48% 30.10 in 10.0 mi SE 3.5 mph - N/A   Clear
10:53 PM 48.0 °F - 30.9 °F 52% 30.11 in 10.0 mi Calm Calm - N/A   Clear
11:53 PM 46.9 °F - 33.1 °F 59% 30.09 in 10.0 mi South 4.6 mph - N/A   Clear